User made mazes table 2013

Below you can find all mazes made by visitors in a table.

Everyone can rate mazes by giving stars. You can do that two times: once during the maze and once after finishing the maze. The vote at the end of the maze counts for 4. So you have 5 votes in total. (You can't rate a maze you've made yourself).
You can choose one star (poor) up to 5 stars (excellent). You can find the average rating in this table.
You can also see the number of unique visitors who started the maze (column 'Starts') and the number of them who finished it (column 'Finished').
In the last column the successful finishes are represented by a percentage of the number of starts. This gives an indication of the difficulty of the maze. The lower the percentage, the more difficult the maze.

Look here for the table of official mazes.



2006 2007 2008 2009 2010 2011 2012 2013 2014 2015 2016 2017 2018 2019 2020 Pages: 1 2 3 4 5 6
Name maze
Sort ascending Sort descending
Maker
Sort ascending Sort descending
Description
 
Date made (CET)
Sort ascending Sort descending
Size
Sort ascending Sort descending
ratingratingratingratingrating
Sort ascending Sort descending
Starts
Sort ascending Sort descending
Finished
Sort ascending Sort descending
%
Sort ascending Sort descending
BelastingArinuska 2013-06-06 12:28:50 L 22 250
Doolhof2Kelly 2013-06-08 00:24:02 XL 1 120
het renske en maikel spookhuisrenskealways get the left door2013-06-11 15:52:08 XL 333 80
Shop for a mazeMaxSo easy2013-06-11 18:55:24 S 4444 70
MAZE JEORjerome boneta 2013-06-12 06:52:51 M 333 70
KatiaKatiaMaze of the week (week 24)2013-06-13 21:55:43 M 4444 350
Doolhof splitMilan 2013-06-14 20:37:00 L 22 80
2de wereldoorlogkajlolo2013-06-18 09:05:13 XL 333 80
Dwaalhof EddyDewi 2013-06-16 13:22:21 M 4444 60
De vakantiestruikGert Engel 2013-06-12 13:52:28 L 333 100
2 jaar huwelijkmichael 2013-06-16 20:25:40 M 4444 110
duisternisdoolhofRoyeeeeeeeeeeeeeeeeeeeeeeeeeeeeeeeeeeeeeeeeeeeeeeeeeeeeeeeeeeeeeeeeeeee eeeeeeeeeeeeeeeeeeeeeeeeeeeeeeeeeeeeeeeeeeeeeeeeeeeeeeeeeeeeeeeeeeee eeeeeeeeeeeeeeeeeeeeeeeeeeeeeeeeeeeeeeeeeeeeeeeeeeeeeennnnnnnnnnnnnn nnnnnnnnnnnnnnnnnnnnnnnnnnnnnnnnnnnnnnnnnnnnnnnnnnnnnnnnnnnnnnnnnnnn nnnnnnnnnnnnnnnnnnnnnnnnnnnnnnnnnngggggggggggggggggggggggggggggggggg gggggggggggggggggggggggggggggggggggggggggggggggggggggggggggggggggggg ggggggggggggggggggggggggggggggggggggggggggggggggggggggggggggggggggggggggggg2013-06-21 09:30:41 M 4444 100
elstarlullo 2013-06-21 10:09:35 XL 4444 150
jeeeeeeemoooeeederqwertytrewqMaze of the week (week 25)2013-06-21 10:15:02 XL 4444 210
heppyhippy 2013-06-21 10:57:49 XL 333 160
Doolhof der competentiesFred 2013-06-21 13:13:25 L 1 100
PienolienoPien 2013-06-22 11:20:20 M 22 160
kaerlkjlkdaerhi 2013-06-22 16:08:55 XS 333 140
Viktriadoolhoflarissa 2013-06-23 19:52:33 L 1 170
martenahiemdiego 2013-06-25 08:33:12 L 1 140
de jufferellenniet 2013-06-27 12:51:06 XL 22 160
freeze doolhofboris 2013-06-25 13:07:27 M 4444 70
kunst van vliegmaggy 2013-06-25 16:03:11 M 22 80
SJPKimberley 2013-06-26 21:54:05 M 55555 220
probeer het einde te halenBram en Jelle 2013-06-27 15:02:08 M 22 40
de alpenmees 2013-06-28 16:42:30 XL 22 150
Adem zoekt EvaSiebe 2013-06-28 18:48:18 M 333 90
o yeahhelenathis is to try, this is my first time2013-06-28 21:02:23 M 333 150
het is onmogelijkafnoefnoevery very very very hard,2013-06-30 16:36:23 XL 4444 60
pakolientjechris 2013-07-01 12:40:39 M 22 130
Nightmare of evilWillem Jan QuintensTry reach it but?2013-07-01 17:41:31 XL 55555 120
Galaxy wayWillem Jan QuintensJust try...2013-07-01 17:49:02 M 4444 120
geniusyoris 2013-07-02 13:38:21 XL 22 130
doolhofvakantiemarjan 2013-07-06 20:34:27 M 4444 90
Leonardo eemlandomit01 2013-07-02 14:35:57 M 4444 40
johnjohn 2013-07-02 17:40:29 M 22 210
the twist mazejaysonthis is a short way just complete this2013-07-03 15:35:03 M 22 50
the twist but awesome mazejaysonMaze of the week (week 27)2013-07-03 15:42:13 M 55555 360
TempleOfries 2013-07-03 16:27:32 M 1 180
anneannethe maze is not very difficult2013-07-04 20:48:18 M 1 190
opzoek naar avondtuurjantien 2013-07-11 09:07:42 M 1 60
smylie doolhofjessica en leonardohe is funny2013-07-13 15:26:05 M 22 90
scary mazersoliver birdtricky maze2013-07-12 02:37:35 L 1 150
DorrepaalDorrepaal 2013-07-19 21:55:13 M 333 150
rio is vermistik 2013-07-31 14:18:01 L 1 70
superheldensara 2013-08-01 15:40:34 M 1 180
WWF DoolhofStefaan 2013-08-02 15:41:55 L 1 120
de sterke muurtom 2013-08-07 08:52:30 XL 22 60
maze awePatrick 2013-08-08 22:28:52 L 22 120
GruntPatrick 2013-08-08 22:32:43 S 22 170
Pages: 1 2 3 4 5 6




Copyright © 2005 - 2019 VirtuWorld.net
All rights reserved